Flag for U.S.A. Weather past 2 weeks in Mason, Ohio, U.S.A.

Now
71 °F

Passing clouds.


Feels Like: 70 °F
Forecast: 56 / 75 °F
Wind: 6 mph from West

Location: Butler County Regional Airport

Current Time: Sep 21, 2014 at 6:37:26 AM

Latest Report: Sep 21, 2014 at 5:53 AM


Visibility: 10 mi

Pressure: 29.80 "Hg

Humidity: 84%

Dew point: 66 °F

Location of MasonLocation

Historic Weather in Mason — Graph

°F

Mason temperature yesterday

Maximum temperature yesterday: 83 °F (at 3:53 PM)
Minimum temperature yesterday: 50 °F (at 4:53 AM)
Average temperature yesterday: 65 °F

Past Weeks' High & Low Weather Summary

 TemperatureHumidityPressure
High84 °F (Sep 9, 3:53 PM)100% (Sep 6, 6:53 AM)30.34 "Hg (Sep 6, 6:53 AM)
Low43 °F (Sep 14, 6:53 AM)36% (Sep 9, 3:53 PM)29.75 "Hg (Sep 10, 7:53 PM)
Average62 °F80%30.10 "Hg
* Reported Sep 6 4:53 AM — Sep 21 4:53 AM, Mason, Weather by CustomWeather, © 2014

Note: Actual official high and low records may vary slightly from our data, if they occured in-between our weather recording intervals... More about our weather records

Advertising

Mason weather history for previous 24 hours

 ConditionsComfort  
Time TempWeatherWind HumidityBarometerVisibility
4:53 AM
Sep 21
71 °FClear.6 mph81%29.80 "Hg10 mi
3:53 AM72 °FClear.7 mph78%29.83 "Hg10 mi
2:53 AM71 °FClear.No wind81%29.85 "Hg10 mi
1:53 AM72 °FPassing clouds.6 mph78%29.87 "Hg10 mi
12:53 AM70 °FPassing clouds.3 mph87%29.90 "Hg10 mi
11:53 PM
Sep 20
69 °FClear.No wind87%29.92 "Hg10 mi
10:53 PM70 °FClear.5 mph87%29.92 "Hg10 mi
9:53 PM67 °FClear.No wind90%29.95 "Hg8 mi
8:53 PM67 °FPassing clouds.No wind93%29.96 "Hg8 mi
7:53 PM71 °FSunny.No wind81%29.95 "Hg10 mi
6:53 PM78 °FSunny.7 mph62%29.92 "Hg10 mi
5:53 PM81 °FSunny.8 mph56%29.93 "Hg10 mi
4:53 PM83 °FScattered clouds.7 mph55%29.96 "Hg10 mi
3:53 PM83 °FPassing clouds.9 mph55%29.97 "Hg10 mi
2:53 PM82 °FPassing clouds.7 mph58%29.99 "Hg10 mi
1:53 PM80 °FScattered clouds.6 mph62%30.03 "Hg10 mi
8:53 AM60 °FFog.No wind86%30.10 "Hg6 mi
7:53 AM53 °FFog.No wind96%30.10 "Hg3 mi
6:53 AM51 °FFog.No wind100%30.08 "Hg4 mi
Weather by CustomWeather, © 2014

See weather overviewHow to use our weather pages